Riverside March, CA

5:57 AM PDT on August 23, 2017 (GMT -0700)
March Air Reserve Base

Weather History for KRIV - May, 2013

Change the Weather History Date:

Sunday, May 19, 2013

  Actual Average Record
Temperature  
Mean Temperature 66 °F -  
Max Temperature 83 °F 78 °F 99 °F (2008)
Min Temperature 50 °F 52 °F 42 °F (2011)
Cooling Degree Days 1    
Growing Degree Days 16 (Base 50)    
Moisture  
Dew Point 52 °F    
Average Humidity 69    
Maximum Humidity 100    
Minimum Humidity 35    
Precipitation  
Precipitation 0.00 in - - ()
Sea Level Pressure  
Sea Level Pressure 29.94 in    
Wind  
Wind Speed 4 mph (WSW)    
Max Wind Speed 15 mph    
Max Gust Speed -    
Visibility 9 miles    
Events      
Averages and records for this station are not official NWS values.
T = Trace of Precipitation, MM = Missing Value Source: NWS Daily Summary

Daily Weather History Graph

Daily Weather History Graph

Search for Another Location

Airport or City:

Trip Planner

Search our weather history database for the weather conditions in past years. The results will help you decide how hot, cold, wet, or windy it might be!

Date:

Astronomy

May. 19, 2013 Rise Set
Actual Time 5:44 AM PDT 7:46 PM PDT
Civil Twilight 5:17 AM PDT 8:14 PM PDT
Nautical Twilight 4:43 AM PDT 8:48 PM PDT
Astronomical Twilight 4:06 AM PDT 9:24 PM PDT
Moon 2:10 PM PDT (5/19) 1:54 AM PDT (5/19)
Length of Visible Light 14h 57m
Length of Day
14h 01m
Waxing Gibbous, 66% of the Moon is Illuminated
May 19
Waxing Gibbous
May 24
Full
May 31
Last Quarter
Jun 8
New
Jun 16
First Quarter

Hourly Weather History & Observations

Time (PDT) Temp. Heat Index Dew Point Humidity Pressure Visibility Wind Dir Wind Speed Gust Speed Precip Events Conditions
12:58 AM 58.1 °F - 52.0 °F 80% 29.98 in 10.0 mi South 3.5 mph - N/A   Clear
1:58 AM 54.9 °F - 48.6 °F 79% 29.97 in 10.0 mi Calm Calm - N/A   Clear
2:58 AM 52.2 °F - 46.6 °F 81% 29.97 in 10.0 mi Calm Calm - N/A   Clear
3:58 AM 52.3 °F - 47.3 °F 83% 29.97 in 10.0 mi WNW 1.2 mph - N/A   Clear
4:58 AM 50.2 °F - 44.4 °F 81% 29.97 in 10.0 mi South 1.2 mph - N/A   Clear
5:58 AM 53.8 °F - 49.5 °F 85% 29.96 in 10.0 mi South 3.5 mph - N/A   Clear
6:53 AM 53.6 °F - 50.0 °F 88% 29.99 in 1.8 mi SE 6.9 mph - N/A   Clear
6:58 AM 53.6 °F - 51.8 °F 94% 29.97 in 10.0 mi SE 6.9 mph - N/A   Partly Cloudy
7:08 AM 53.6 °F - 51.8 °F 94% 29.99 in 2.0 mi SSE 4.6 mph - N/A   Scattered Clouds
7:13 AM 53.6 °F - 53.6 °F 100% 29.99 in 1.0 mi SSE 5.8 mph - N/A   Mostly Cloudy
7:18 AM 53.6 °F - 53.6 °F 100% 29.99 in 3.0 mi SE 4.6 mph - N/A   Mostly Cloudy
7:33 AM 55.4 °F - 55.4 °F 100% 29.99 in 7.0 mi SE 3.5 mph - N/A   Scattered Clouds
7:58 AM 58.1 °F - 52.9 °F 83% 29.97 in 10.0 mi SE 5.8 mph - N/A   Partly Cloudy
8:58 AM 61.9 °F - 53.4 °F 74% 29.97 in 10.0 mi Variable 2.3 mph - N/A   Scattered Clouds
9:58 AM 66.2 °F - 54.7 °F 66% 29.96 in 10.0 mi East 3.5 mph - N/A   Clear
10:58 AM 69.6 °F - 54.1 °F 58% 29.94 in 10.0 mi Variable 1.2 mph - N/A   Clear
11:58 AM 75.0 °F - 54.5 °F 49% 29.92 in 10.0 mi West 8.1 mph - N/A   Clear
12:58 PM 78.8 °F - 54.1 °F 42% 29.90 in 10.0 mi NW 8.1 mph - N/A   Partly Cloudy
1:58 PM 81.1 °F 80.6 °F 53.6 °F 38% 29.88 in 10.0 mi NW 10.4 mph - N/A   Clear
2:58 PM 82.9 °F - 52.3 °F 35% 29.87 in 10.0 mi NW 15.0 mph - N/A   Clear
3:58 PM 82.2 °F - 52.3 °F 35% 29.86 in 10.0 mi WNW 10.4 mph - N/A   Clear
4:58 PM 80.2 °F - 51.4 °F 37% 29.87 in 10.0 mi WNW 10.4 mph - N/A   Clear
5:58 PM 77.7 °F - 51.6 °F 40% 29.87 in 10.0 mi NW 11.5 mph - N/A   Clear
6:58 PM 74.5 °F - 51.1 °F 44% 29.88 in 10.0 mi NW 11.5 mph - N/A   Clear
7:58 PM 70.0 °F - 54.3 °F 57% 29.90 in 10.0 mi NW 5.8 mph - N/A   Clear
8:58 PM 67.1 °F - 54.7 °F 64% 29.91 in 10.0 mi West 2.3 mph - N/A   Clear
9:58 PM 65.1 °F - 54.0 °F 67% 29.93 in 10.0 mi Calm Calm - N/A   Clear
10:58 PM 63.1 °F - 53.6 °F 71% 29.93 in 10.0 mi Calm Calm - N/A   Clear
11:58 PM 59.0 °F - 50.2 °F 73% 29.91 in 10.0 mi WNW 2.3 mph - N/A   Clear